Location: ??
(34.9170°N, 135.5016°E)
Time: 23:17:06
(UTC+00:00)

RS-15 - Pass Details

Date: 25 April 2021
Orbit: 1888 x 2157 km, 64.8° (Epoch: 12 May)

Event Time Altitude Azimuth Distance (km) Brightness Sun altitude
Rises 14:16:37 0° 323° (NW) 5,466 11.1 -40.8°
Reaches altitude 10° 14:22:31 10° 345° (NNW) 4,523 10.6 -41.0°
Maximum altitude 14:28:40 15° 18° (NNE) 4,165 10.2 -41.3°
Drops below altitude 10° 14:34:56 10° 50° (NE) 4,624 10.2 -41.4°
Sets 14:41:03 0° 73° (ENE) 5,660 10.6 -41.6°
